Location: Newark
(52.3735°N, 16.9806°E)
Time: 03:54:43
(UTC+00:00)

LilacSat-2 - Pass Details

Date: 07 December 2021
Orbit: 511 x 532 km, 97.5° (Epoch: 16 January)

Event Time Altitude Azimuth Distance (km) Brightness Sun altitude
Rises 04:24:57 0° 18° (NNE) 2,691 ? -20.5°
Reaches altitude 10° 04:27:10 10° 26° (NNE) 1,796 ? -20.2°
Maximum altitude 04:30:52 42° 98° (E) 771 ? -19.6°
Drops below altitude 10° 04:34:33 10° 171° (S) 1,783 ? -19.1°
Sets 04:36:44 0° 178° (S) 2,668 ? -18.7°
